Weather History for St. Stephen, NB

Change the Weather History Date:

Tuesday, January 8, 2013

  Actual Average Record
Temperature  
Mean Temperature 11 °F -  
Max Temperature 36 °F - - ()
Min Temperature -14 °F - - ()
Degree Days  
Heating Degree Days 54    
Moisture  
Dew Point 9 °F    
Average Humidity 78    
Maximum Humidity 92    
Minimum Humidity 44    
Precipitation  
Precipitation 0.36 in - - ()
Sea Level Pressure  
Sea Level Pressure 30.25 in    
Wind  
Wind Speed 1 mph ()    
Max Wind Speed 7 mph    
Max Gust Speed -    
T = Trace of Precipitation, MM = Missing Value Source: Averaged Metar Reports

Daily Weather History Graph

Daily Weather History Graph

Search for Another Location

Airport:

Trip Planner

Search our weather history database for the weather conditions in past years. The results will help you decide how hot, cold, wet, or windy it might be!

Date:

Astronomy

Jan. 08, 2013 Rise Set
Actual Time 8:07 AM AST 5:04 PM AST
Civil Twilight 7:33 AM AST 5:38 PM AST
Nautical Twilight 6:56 AM AST 6:15 PM AST
Astronomical Twilight 6:21 AM AST 6:50 PM AST
Moon 4:34 AM AST (1/8) 2:04 PM AST (1/8)
Length of Visible Light 10h 04m
Length of Day
8h 57m
Waning Crescent, 14% of the Moon is Illuminated
Jan 8
Waning Crescent
Jan 11
New
Jan 18
First Quarter
Jan 27
Full
Feb 3
Last Quarter

Hourly Weather History & Observations

Time (AST) Temp. Windchill Dew Point Humidity Pressure Visibility Wind Dir Wind Speed Gust Speed Precip Events Conditions
12:00 AM -11.4 °F - -15.2 °F 83% 30.40 in - East 1.2 mph - N/A   Unknown
1:00 AM -13.2 °F - -17.1 °F 82% 30.40 in - Calm Calm - N/A   Unknown
2:00 AM -14 °F - -18 °F 74% 30.38 in - Calm Calm - -  
2:00 AM -13.9 °F - -17.7 °F 83% 30.38 in - Calm Calm - N/A   Unknown
3:00 AM -7.2 °F - -10.5 °F 86% 30.34 in - East 1.2 mph - N/A   Unknown
4:00 AM -4.0 °F - -7.2 °F 86% 30.29 in - Calm Calm - N/A   Unknown
5:00 AM 1 °F - -1 °F 86% 30.25 in - Calm Calm - -  
5:00 AM 1.4 °F - -1.1 °F 89% 30.25 in - Calm Calm - N/A   Unknown
6:00 AM 2.3 °F - -0.8 °F 87% 30.21 in - Calm Calm - N/A   Unknown
7:00 AM 0.3 °F - -2.6 °F 88% 30.20 in - NW 1.2 mph - N/A   Unknown
8:00 AM 3 °F - 1 °F 87% 30.20 in - West 1.2 mph - -  
8:00 AM 3.2 °F - 1.0 °F 91% 30.20 in - West 1.2 mph - N/A   Unknown
9:00 AM 9.0 °F - 7.2 °F 92% 30.20 in - WNW 2.3 mph - N/A   Unknown
10:00 AM 22.5 °F - 16.9 °F 79% 30.22 in - NW 2.3 mph - N/A   Unknown
11:00 AM 27 °F - 18 °F 56% 30.21 in - West 3.5 mph - -  
11:00 AM 27.0 °F 23.0 °F 17.6 °F 68% 30.21 in - West 3.5 mph - N/A   Unknown
12:00 PM 32.0 °F 28.7 °F 20.7 °F 63% 30.18 in - SW 3.5 mph - N/A   Unknown
1:00 PM 33.6 °F 28.4 °F 21.7 °F 62% 30.16 in - West 5.8 mph - N/A   Unknown
2:00 PM 36 °F - 22 °F 44% 30.15 in - West 5.8 mph - -  
2:00 PM 36.0 °F 31.1 °F 22.1 °F 57% 30.15 in - West 5.8 mph - N/A   Unknown
3:00 PM 34.3 °F 28.4 °F 20.1 °F 56% 30.18 in - West 6.9 mph - N/A   Unknown
4:00 PM 31.3 °F - 21.0 °F 66% 30.19 in - West 2.3 mph - N/A   Unknown
5:00 PM 29.1 °F - 20.8 °F 71% 30.20 in - Calm Calm - N/A   Unknown
6:00 PM 26.8 °F - 21.9 °F 82% 30.22 in - Calm Calm - N/A   Unknown
7:00 PM 26.2 °F - 20.8 °F 80% 30.23 in - Calm Calm - N/A   Unknown
8:00 PM 25 °F - 21 °F 80% 30.25 in - WSW 2.3 mph - -  
8:00 PM 24.8 °F - 21.4 °F 87% 30.25 in - WSW 2.3 mph - N/A   Unknown
9:00 PM 25.2 °F - 19.4 °F 79% 30.27 in - North 1.2 mph - N/A   Unknown
10:00 PM 19.8 °F - 17.1 °F 89% 30.27 in - WSW 1.2 mph - N/A   Unknown
11:00 PM 16 °F - 14 °F 87% 30.30 in - North 1.2 mph - -  
11:00 PM 15.8 °F - 13.8 °F 92% 30.30 in - North 1.2 mph - N/A   Unknown